CAPE
1268 950 884 594 481 356 190 141 57 6 0 0 0 0 0 0 0 0 0 0 8 8 7 11 13 15 13 15 20 14 11 18 28
1050 698 756 502 288 52 16 8 3 0 0 0 0 0 0 0 0 0 0 1 8 9 7 11 11 13 13 17 15 16 4 20 23
928 696 707 475 63 3 0 0 0 0 0 0 0 0 0 0 0 0 0 13 8 6 5 5 8 6 10 14 13 16 13 15 20
911 704 479 290 43 2 0 0 0 0 0 0 0 0 0 0 0 0 0 15 5 5 4 4 5 4 8 9 9 10 12 17 17
548 403 293 205 0 0 0 0 0 0 0 0 0 0 0 0 0 0 2 9 6 5 4 3 3 3 7 5 7 8 7 8 8
77 103 136 126 12 6 0 0 0 0 0 0 0 0 0 0 0 0 10 10 6 4 3 2 2 2 3 3 5 5 4 7 8
14 13 57 137 62 41 18 0 0 0 0 0 0 0 0 0 0 0 4 3 2 2 1 1 0 1 0 0 1 2 2 5 5
14 9 14 1 35 21 2 0 0 0 0 0 0 0 0 0 0 0 0 1 1 0 1 0 0 0 0 0 0 0 0 0 0
14 2 0 0 0 0 0 0 0 0 0 0 0 0 0 0 0 0 0 0 0 0 0 0 0 0 0 0 0 0 0 0 0
17 1 0 0 0 0 0 0 0 0 0 0 0 0 0 0 0 0 0 0 3 0 0 0 0 0 0 0 0 0 0 0 0
16 3 0 0 0 0 0 0 0 0 0 0 0 0 0 0 0 0 0 0 1 12 0 0 0 0 0 0 0 0 0 0 0
3 7 3 0 0 0 0 0 0 0 0 0 0 0 0 0 0 0 0 0 0 48 68 93 76 73 54 19 0 0 0 0 0
0 4 45 1 0 0 0 0 0 0 1 11 0 0 0 0 0 0 0 0 0 3 110 213 209 217 230 210 190 134 74 36 5
6 8 0 0 0 0 0 0 0 5 21 9 0 0 0 0 0 0 0 0 0 0 5 39 101 125 149 175 208 174 180 161 163
0 0 0 0 0 0 0 0 4 41 32 16 0 0 0 0 0 0 0 0 0 0 1 4 3 16 44 55 127 151 92 80 90
0 0 0 0 0 0 0 13 39 61 21 2 0 0 0 0 0 0 0 0 0 0 0 16 0 0 0 10 15 29 33 36 23
0 0 0 0 0 15 17 53 72 66 26 0 0 1 0 0 0 0 0 0 0 0 0 0 0 0 0 0 0 0 0 3 5
0 0 0 7 41 50 65 109 106 68 1 0 1 0 0 4 0 0 0 0 0 0 0 0 0 0 0 0 0 0 0 0 0
0 15 35 90 112 126 136 127 113 91 0 0 1 0 8 21 4 0 0 0 0 0 0 0 0 0 0 0 0 0 0 0 1
125 107 143 148 153 162 131 29 3 0 21 31 27 14 0 6 0 0 0 0 0 0 0 0 0 0 0 0 0 0 0 1 6
CIN
0 0 0 -16 -31 -60 -115 -159 -235 0 0 0 0 0 0 0 0 0 0 0 0 0 0 0 0 0 0 0 0 0 -1 0 0
0 0 0 -23 -67 -228 -92 0 0 0 0 0 0 0 0 0 0 0 0 -4 0 0 0 0 0 0 0 0 0 0 0 0 -1
0 -5 -2 -26 -207 0 0 0 0 0 0 0 0 0 0 0 0 0 0 -1 0 0 0 0 0 0 0 0 0 0 0 0 0
0 -8 -22 -60 -243 0 0 0 0 0 0 0 0 0 0 0 0 0 0 0 0 0 0 0 0 0 0 0 0 0 0 0 0
-28 -52 -64 -92 0 0 0 0 0 0 0 0 0 0 0 0 0 0 -3 0 0 0 0 0 0 0 0 0 0 0 0 0 0
-163 -206 -149 -156 -3 -10 0 0 0 0 0 0 0 0 0 0 0 0 -1 0 0 0 0 0 0 0 0 0 0 0 0 0 0
-19 -19 -8 -162 -4 -23 -45 0 0 0 0 0 0 0 0 0 0 0 -1 0 0 0 0 0 0 0 0 0 0 0 0 0 0
-34 -33 -25 -4 -18 -33 -2 0 0 0 0 0 0 0 0 0 0 0 0 0 0 0 0 0 0 0 0 0 0 0 0 0 0
-40 -21 0 0 0 0 0 0 0 0 0 0 0 0 0 0 0 0 0 0 0 0 0 0 0 0 0 0 0 0 0 0 0
-26 -7 0 0 0 0 0 0 0 0 0 0 0 0 0 0 0 0 0 0 -22 0 0 0 0 0 0 0 0 0 0 0 0
-22 -20 0 0 0 0 0 0 0 0 0 0 0 0 0 0 0 0 0 0 -5 -14 0 0 0 0 0 0 0 0 0 0 0
-27 -11 -7 0 -3 0 0 0 0 0 0 0 0 0 0 0 0 0 0 0 0 -21 -1 0 -1 -1 -4 -7 0 0 0 0 0
0 -7 -31 -6 0 0 0 0 0 0 -27 -131 0 0 0 0 0 0 0 0 0 -43 -32 -17 -23 -34 0 0 0 0 -4 -6 -1
-8 -20 0 0 0 0 0 0 0 -95 -124 -139 0 0 0 0 0 0 0 0 0 0 -155 -85 -45 -30 -13 -6 -3 -5 -6 -6 -4
0 0 0 0 0 0 0 0 -123 -111 -118 -94 0 0 0 0 0 0 0 0 0 0 -30 -161 -38 -127 -83 -57 -9 -2 -4 -3 -4
0 0 0 0 0 0 0 -158 -128 -98 -129 -131 0 0 0 0 0 0 0 0 0 0 0 -85 0 0 -1 -106 -107 -54 -31 -36 -10
0 0 0 0 0 -150 -154 -116 -89 -69 -91 0 0 -15 0 0 0 0 0 0 0 0 0 0 -40 0 0 0 0 0 0 -93 -22
0 0 0 -59 -131 -132 -112 -82 -60 -47 -15 0 -17 0 0 -28 0 0 0 0 0 0 0 0 0 0 0 0 0 0 0 0 0
0 -76 -126 -114 -108 -97 -82 -61 -40 -54 -9 0 -34 0 -53 -30 -28 0 0 0 0 0 0 0 0 0 0 0 0 0 0 0 -6
-40 -82 -94 -120 -95 -73 -91 -205 -187 0 -114 -64 -55 -144 0 -117 -6 0 0 0 0 0 0 0 0 0 0 0 0 0 0 0 -52
Wind_Speed
18 17 18 17 16 15 16 16 15 14 11 8 7 7 7 10 9 8 10 6 15 16 16 15 15 16 16 16 17 17 16 18 17
20 18 18 18 16 16 16 15 14 13 10 7 5 8 6 9 8 7 6 6 15 15 15 14 15 16 15 15 16 16 15 16 16
20 19 19 18 17 16 16 15 14 13 10 7 6 8 8 10 9 7 5 11 14 14 14 13 14 14 14 14 15 14 15 15 15
19 18 18 17 16 15 14 15 14 13 9 5 3 4 8 7 7 7 3 11 13 13 13 13 13 13 13 14 13 13 14 14 14
17 15 17 17 16 15 14 14 13 12 8 4 0 6 6 8 8 5 4 11 12 12 12 12 12 12 12 12 12 12 13 12 13
14 11 14 16 15 14 14 14 13 9 6 3 1 4 1 7 6 3 8 10 11 11 11 11 10 10 10 11 10 11 11 11 12
10 10 14 16 13 13 13 14 13 9 3 2 5 2 5 6 6 3 8 9 10 10 9 9 9 9 9 9 9 10 9 10 10
8 6 5 6 8 5 5 5 4 5 5 4 4 4 6 5 5 5 7 8 8 8 8 8 7 8 7 7 8 8 7 8 8
8 6 6 5 4 6 5 4 5 7 7 6 3 4 4 5 5 5 8 7 7 7 7 6 6 6 6 6 5 5 6 6 5
9 7 7 6 5 6 5 5 4 2 2 3 4 4 4 6 5 4 9 7 6 6 6 6 5 4 5 5 4 4 4 4 3
9 8 5 5 5 6 5 4 4 3 3 3 4 2 3 2 6 4 5 10 7 6 6 6 5 5 5 5 5 4 4 3 3
11 8 5 5 5 7 4 3 3 2 0 3 4 3 4 3 3 6 4 5 7 7 7 8 7 7 6 6 6 5 5 5 5
11 9 8 5 5 5 4 3 2 4 3 1 2 2 2 2 3 3 5 4 5 7 10 8 9 9 9 9 8 8 8 7 7
12 9 6 6 5 4 4 2 3 3 2 1 1 1 1 0 2 1 2 5 5 4 8 10 8 6 7 9 8 9 7 7 8
6 5 6 6 5 4 4 4 2 3 4 3 2 1 2 2 1 1 2 2 4 3 4 5 5 8 6 4 5 5 3 7 6
7 5 7 6 6 5 6 4 4 1 2 3 1 2 4 4 2 3 3 5 5 6 5 3 2 3 5 5 6 7 6 6 7
8 7 8 6 5 6 5 5 3 2 3 3 2 2 2 3 4 4 4 4 3 4 4 4 3 4 3 3 6 5 4 5 7
7 8 8 6 5 5 5 5 5 3 3 4 3 1 2 1 0 3 1 0 1 0 1 1 3 2 2 3 3 2 2 3 2
7 9 8 6 4 6 4 4 2 3 4 2 1 2 3 2 0 0 2 2 3 2 1 0 0 1 2 2 5 7 8 8 8
7 8 8 8 5 6 7 6 5 4 4 2 2 2 2 0 2 2 3 2 2 2 3 1 1 2 1 1 2 3 6 8 10
Wind_Direction
133 130 118 113 109 108 97 98 104 112 102 102 85 43 13 84 82 75 78 84 92 89 85 83 83 80 79 79 71 78 74 69 71
128 127 121 118 116 118 118 121 119 114 111 110 72 29 23 84 80 77 72 80 90 88 87 85 84 79 78 76 77 77 75 70 68
132 130 123 123 125 126 125 123 117 113 114 106 35 14 26 85 83 77 77 91 92 90 89 86 84 83 83 80 77 74 76 67 68
132 129 126 126 127 126 124 122 118 114 112 94 57 356 84 105 116 103 73 96 95 92 88 86 82 83 82 80 78 79 74 73 69
128 128 129 126 127 126 125 123 120 118 120 143 177 12 28 95 79 75 84 97 94 91 88 86 85 85 81 81 82 81 78 76 79
132 125 128 125 127 127 127 125 122 118 130 171 260 326 277 99 98 87 94 99 98 96 93 92 90 87 84 83 80 77 76 75 70
124 122 129 124 126 128 132 135 143 143 162 211 244 240 111 101 101 103 114 114 110 108 105 101 99 97 93 93 89 86 81 76 75
135 127 118 122 126 129 128 144 180 206 174 202 239 182 119 115 115 130 132 127 122 118 115 111 108 102 100 98 98 92 91 88 81
138 136 137 141 160 147 153 189 210 208 174 189 153 121 112 123 128 145 146 143 139 135 130 127 123 119 116 113 107 106 101 96 93
145 146 152 164 169 165 175 200 172 197 187 102 96 82 125 121 138 148 156 159 161 157 156 155 151 146 144 143 144 142 136 130 117
142 153 161 175 172 170 175 162 149 191 143 140 127 160 94 123 128 145 169 171 183 188 189 187 187 191 184 183 186 192 183 180 169
146 152 169 202 145 139 141 149 136 148 93 144 159 173 184 181 169 155 166 174 187 205 219 215 212 219 223 220 219 222 225 218 214
153 168 190 160 124 133 133 137 148 150 140 236 174 124 110 165 198 172 149 173 187 208 215 235 235 236 240 247 249 238 232 237 238
162 167 136 125 123 128 144 151 156 157 160 163 97 150 116 201 327 145 183 171 156 188 217 217 226 249 273 276 278 287 295 265 254
125 127 128 127 133 148 146 154 179 176 172 169 176 214 218 180 132 341 270 196 178 201 177 195 209 210 237 294 322 312 354 13 16
137 132 137 138 146 161 162 152 158 35 80 71 291 250 211 172 150 67 30 34 19 49 38 51 119 105 110 91 77 56 40 21 9
148 145 150 150 157 158 158 147 145 159 167 150 133 120 357 33 74 58 33 34 17 45 46 24 79 127 124 115 90 92 80 54 27
154 146 155 161 149 152 161 148 139 158 37 92 132 89 114 92 264 102 113 315 305 4 357 42 36 70 117 157 142 186 187 178 215
159 152 150 149 136 137 132 128 140 114 121 45 93 117 125 117 14 303 198 237 223 194 190 160 81 58 27 18 18 359 343 325 306
147 142 126 127 124 131 127 113 102 106 121 149 141 83 70 182 151 261 290 308 240 216 220 212 118 65 35 12 337 312 306 300 294